Location: Chippewa Lake
(41.0698°N, 81.9010°W)
Time: 02:10:37
(UTC+00:00)

ARIANE 5 R/B - Pass Details

Date: 09 May 2021
Orbit: 620 x 656 km, 98.1° (Epoch: 13 June)

Event Time Altitude Azimuth Distance (km) Brightness Sun altitude
Exits shadow 03:50:50 21° 261° (W) 1,405 4.5 -27.7°
Maximum altitude 03:51:03 21° 266° (W) 1,402 4.5 -27.7°
Drops below altitude 10° 03:54:21 10° 316° (NW) 1,994 6.0 -27.9°
Sets 03:57:01 0° 332° (NNW) 2,905 7.3 -28.1°
